Regional Weather Roundup
Issued by NWS Nashville, TN

Home | Current Version | Previous Version | Text Only | Print | Product List | Glossary On
Versions: 1 2 3 4 5 6 7 8 9 10 11 12 13 14 15 16 17 18 19 20 21 22 23 24 25 26 27 28
000
ASUS44 KOHX 231310
RWROHX
MIDDLE TENNESSEE HOURLY WEATHER ROUNDUP
NATIONAL WEATHER SERVICE NASHVILLE TN
800 AM CDT FRI JUN 23 2017

NOTE: "FAIR" INDICATES FEW OR NO CLOUDS BELOW 12,000 FEET WITH
NO SIGNIFICANT WEATHER AND/OR OBSTRUCTIONS TO VISIBILITY.

* THESE REPORTS ARE NOT UNDER NWS QUALITY CONTROL AND MAY NOT
  REPORT WEATHER SUCH AS PRECIPITATION AND FOG.


TNZ005>011-023>034-057-059-062>066-078-080-231400
...NORTHERN MIDDLE TENNESSEE...

CITY           SKY/WX    TMP DP  RH WIND       PRES   REMARKS
CLARKSVILLE    MOSUNNY   79  70  74 S15G25    29.79S
CROSSVILLE     CLOUDY    71  69  93 VRB7      29.97S
GALLATIN       PTSUNNY   79  72  78 S10G17    29.87S
NASHVILLE      PTSUNNY   80  71  74 S17       29.85S
PORTLAND       PTSUNNY   77  72  83 S18       29.83S
SMYRNA         MOSUNNY   79  72  79 S9G18     29.85F
SPARTA         CLOUDY    75  72  88 S8        29.90F
WEST NASHVILLE MOSUNNY   81  72  74 S14G22    29.81S
$$
TNZ056-058-060-061-075>077-079-093>097-231400
...SOUTHERN MIDDLE TENNESSEE...

CITY           SKY/WX    TMP DP  RH WIND       PRES   REMARKS
COLUMBIA       PTSUNNY   79  73  83 S12G20    29.82F
FAYETTEVILLE   CLOUDY    73  73 100 S10G16    29.90S FOG
MCMINNVILLE    PTSUNNY   77  75  94 VRB7      29.91F
MURFREESBORO   MOSUNNY   79  70  74 S10       29.85F
PULASKI        CLOUDY    77  73  88 S13       29.86S
SHELBYVILLE    CLOUDY    77  73  88 S17       29.88S
TULLAHOMA      CLOUDY    73  72  94 S8        29.92S
WINCHESTER     CLOUDY    73  72  94 S8          N/A
$$


...KEY TO REMARKS...
VSB - VISIBILITY IN MILES
WCI - WIND CHILL INDEX
HX  - HEAT INDEX





USA.gov is the U.S. government's official web portal to all federal, state and local government web resources and services.